Location: Gellin
(53.4498°N, 14.3207°E)
Time: 01:51:40
(UTC+00:00)

Cosmos 1470 Rocket - Pass Details

Date: 03 March 2021
Orbit: 602 x 635 km, 82.5° (Epoch: 11 April)

Event Time Altitude Azimuth Distance (km) Brightness Sun altitude
Rises 18:37:09 0° 204° (SSW) 2,920 7.2 -17.5°
Reaches altitude 10° 18:39:26 10° 209° (SSW) 2,014 6.4 -17.8°
Maximum altitude 18:43:48 51° 286° (WNW) 797 4.5 -18.4°
Drops below altitude 10° 18:48:10 10° 3° (N) 2,014 6.3 -19.0°
Sets 18:50:27 0° 9° (N) 2,921 7.1 -19.4°
